Location: Palmerston North
(40.3500°S, 175.6170°E)
Time: 02:39:12
(UTC+12:00)

Cosmos 1633 - Pass Details

Date: 24 January 2019
Orbit: 467 x 483 km, 82.5° (Epoch: 17 April)

Event Time Altitude Azimuth Distance (km) Brightness Sun altitude
Rises 23:14:19 0° 200° (SSW) 2,550 7.5 -22.6°
Reaches altitude 10° 23:16:37 10° 211° (SSW) 1,664 6.4 -22.9°
Maximum altitude 23:19:44 27° 271° (W) 941 4.3 -23.2°
Enters shadow 23:20:22 26° 290° (WNW) 980 4.2 -23.3°
